Regional Weather Roundup
Issued by NWS

Home | Current Version | Previous Version | Graphics & Text | Print | Product List | Glossary Off
Versions: 1 2 3 4 5 6 7 8 9 10 11 12 13 14 15 16 17 18 19 20 21 22 23 24 25 26 27 28 29 30 31 32 33 34 35 36 37 38 39 40 41 42 43 44 45 46 47 48 49 50

000
ASUS43 KDMX 260403
RWRIA

WEATHER ROUNDUP FOR IOWA
NATIONAL WEATHER SERVICE DES MOINES IA
1100 PM CDT WED MAY 25 2016

NOTE: "FAIR" INDICATES FEW OR NO CLOUDS BELOW 12,000 FEET WITH NO
SIGNIFICANT WEATHER AND/OR OBSTRUCTIONS TO VISIBILITY.

* - THESE STATIONS ARE NOT NWS STATIONS...THUS NOT UNDER NWS
QUALITY CONTROL.  THEY ALSO DO NOT REPORT WEATHER SUCH
AS PRECIPITATION OR FOG.

IAZ001>003-012>014-020>022-031>034-043>046-260500-
   NORTHWEST IOWA

CITY           SKY/WX    TMP DP  RH WIND       PRES   REMARKS
CARROLL *      PTCLDY    68  66  94 S6        29.85R
CHEROKEE *     PTCLDY    68  65  89 S6        29.84R
DENISON *      CLOUDY    70  66  88 S7        29.83R
LE MARS *      CLOUDY    72  66  83 S7        29.83R
ORANGE CITY *  CLEAR     72  64  78 S5        29.82F
SHELDON *      MOCLDY    70  64  83 S6        29.81F
SIOUX CITY     CLOUDY    72  66  81 S8        29.81R
SPENCER        CLOUDY    69  61  75 S6        29.83R
STORM LAKE *   CLEAR     68  63  83 S8        29.85R
$$

IAZ055>058-069>071-079>083-090>094-260500-
   SOUTHWEST IOWA

CITY           SKY/WX    TMP DP  RH WIND       PRES   REMARKS
ATLANTIC *     CLOUDY    72  68  88 S5        29.85S
AUDUBON *      CLEAR     68  64  88 CALM      29.86S
CLARINDA *       N/A     72  68  88 MISG      29.86S
COUNCIL BLFS * CLEAR     70  66  88 SE7       29.84S
CRESTON *      CLOUDY    70  66  88 SE6       29.88S
HARLAN  *      PTCLDY    68  68 100 CALM      29.88R
LAMONI         CLOUDY    72  65  78 S3        29.88R
RED OAK *      CLOUDY    70  66  88 CALM      29.84F
SHENANDOAH *   CLOUDY    72  70  94 SE3       29.84S
$$

IAZ047>049-059>061-072>074-084-260500-
   CENTRAL IOWA

CITY           SKY/WX    TMP DP  RH WIND       PRES   REMARKS
AMES           MOCLDY    69  64  84 S5        29.86R
ANKENY *       CLOUDY    72  66  83 CALM      29.86R
BOONE *        CLOUDY    70  66  88 S6        29.85R
CHARITON *     CLOUDY    73  64  73 S7        29.87S
DES MOINES     CLOUDY    75  65  70 S6        29.85S
GRINNELL*      CLOUDY    72  64  78 S5        29.89R
KNOXVILLE *    CLOUDY    73  64  73 SE5       29.86R
MARSHALLTOWN   CLOUDY    70  63  78 E7        29.86S
NEWTON *       CLOUDY    73  68  83 SE3       29.86S
PELLA *        CLOUDY    71  66  82 CALM      29.88R
PERRY *        MOCLDY    71  69  91 S7        29.86R
$$

IAZ004>006-015-016-023>025-035-036-260500-
   NORTH CENTRAL IOWA

CITY           SKY/WX    TMP DP  RH WIND       PRES   REMARKS
ALGONA *       PTCLDY    70  63  78 S8        29.85R
CLARION *      MOCLDY    68  64  88 S10       29.85R
ESTHERVILLE    CLOUDY    67  60  78 CALM      29.83F
FORT DODGE *   CLOUDY    72  63  73 S7        29.86R
MASON CITY     MOCLDY    67  65  93 S7        29.86R
FOREST CITY *  MOCLDY    68  63  83 S6        29.85R
WEBSTER CITY * MOCLDY    70  64  83 S8        29.84R
IOWA FALLS *   CLOUDY    72  63  73 S7        29.87S
$$

IAZ007>011-017>019-026>030-037>042-050>054-066-260500-
   NORTHEAST IOWA

CITY           SKY/WX    TMP DP  RH WIND       PRES   REMARKS
CEDAR RAPIDS   CLOUDY    72  62  71 SE5       29.88S
CHARLES CITY * CLOUDY    72  63  73 S8        29.87S
CLINTON *      PTCLDY    71  61  70 S5        29.91S
DECORAH *      MOCLDY    70  63  78 S5        29.87R
DUBUQUE        PTCLDY    67  59  75 SW8       29.90S
MONTICELLO *   CLOUDY    72  59  64 CALM      29.89S
OELWEIN *      MOCLDY    70  61  73 S8        29.88S
WATERLOO       MOCLDY    71  59  65 S6        29.86R
$$

IAZ064-065-067-068-078-260500-
   EAST CENTRAL IOWA

CITY           SKY/WX    TMP DP  RH WIND       PRES   REMARKS
DAVENPORT      MOCLDY    71  59  65 S3        29.91S
IOWA CITY      CLOUDY    72  61  68 CALM      29.90S
MT. PLEASANT * MOCLDY    77  64  65 S7        29.90S
MUSCATINE *    CLOUDY    73  64  73 CALM      29.90S
QUAD CITIES    PTCLDY    71  61  70 S3        29.89S
$$

IAZ062-063-075>077-085>089-095>099-260500-
   SOUTHEAST IOWA

CITY           SKY/WX    TMP DP  RH WIND       PRES   REMARKS
BURLINGTON     PTCLDY    71  64  78 S6        29.90F
FAIRFIELD *      N/A    N/A N/A N/A MISG        N/A
FORT MADISON * CLEAR     73  63  68 S5        29.92S
KEOKUK *       MOCLDY    75  64  69 S5        29.90S
OSKALOOSA *    CLOUDY    73  63  68 S5        29.88S
OTTUMWA        CLOUDY    75  64  68 S7        29.87S
WASHINGTON *   CLOUDY    73  68  83 SE6       29.90S
$$

ABBREVIATIONS USED IN REMARKS
   TC - TEMPERATURES IN CELSIUS
  WCI - WIND CHILL INDEX
   HX - HEAT INDEX
  VSB - VISIBILITY
$$





USA.gov is the U.S. government's official web portal to all federal, state and local government web resources and services.